New Roads False River Regiona, LA

6:21 PM CDT on September 16, 2019 (GMT -0500)
False River

Weather History for KHZR - May, 2019

Change the Weather History Date:

Friday, May 24, 2019

  Actual Average (WUND) Record (WUND)
Temperature  
Mean Temperature 78 °F -  
Max Temperature 87 °F - - (-1)
Min Temperature 69 °F - - (-1)
Cooling Degree Days 13    
Growing Degree Days 28 (Base 50)    
Moisture  
Dew Point 70 °F    
Average Humidity 77    
Maximum Humidity 100    
Minimum Humidity 46    
Precipitation  
Precipitation 0.00 in - - ()
Sea Level Pressure  
Sea Level Pressure 30.09 in    
Wind  
Wind Speed 2 mph ()    
Max Wind Speed 8 mph    
Max Gust Speed -    
Visibility 6.1 miles    
Events      
Averages and records for this station are not official NWS values.
T = Trace of Precipitation, MM = Missing Value Source: Averaged Metar Reports

Daily Weather History Graph

Daily Weather History Graph

Search for Another Location

Airport or City:

Astronomy

May. 24, 2019 Rise Set
Actual Time 6:06 AM CDT 7:59 PM CDT
Civil Twilight 5:39 AM CDT 8:26 PM CDT
Nautical Twilight 5:07 AM CDT 8:58 PM CDT
Astronomical Twilight 4:32 AM CDT 9:33 PM CDT
Moon 12:25 AM CDT (5/24) 11:05 AM CDT (5/24)
Length of Visible Light 14h 46m
Length of Day
13h 53m
Waning Gibbous, 68% of the Moon is Illuminated
May 24
Waning Gibbous
May 26
Last Quarter
Jun 3
New
Jun 10
First Quarter
Jun 17
Full

Hourly Weather History & Observations

Time (CDT) Temp. Heat Index Dew Point Humidity Pressure Visibility Wind Dir Wind Speed Gust Speed Precip Events Conditions
12:15 AM 75.2 °F - 71.6 °F 89% 30.10 in 10.0 mi Calm Calm - N/A   Clear
12:35 AM 75.2 °F - 71.6 °F 89% 30.09 in 10.0 mi ESE 3.5 mph - N/A   Clear
12:56 AM 75.2 °F - 71.6 °F 89% 30.09 in 10.0 mi Calm Calm - N/A   Clear
1:35 AM 73.4 °F - 71.6 °F 94% 30.08 in - Calm Calm - N/A   Unknown
1:55 AM 73.4 °F - 71.6 °F 94% 30.08 in - Calm Calm - N/A   Unknown
2:16 AM 71.6 °F - 71.6 °F 100% 30.07 in - Calm Calm - N/A   Unknown
2:35 AM 71.6 °F - 71.6 °F 100% 30.07 in - Calm Calm - N/A   Unknown
3:16 AM 69.8 °F - 69.8 °F 100% 30.07 in 3.0 mi Calm Calm - N/A   Clear
3:35 AM 69.8 °F - 69.8 °F 100% 30.07 in 4.0 mi Calm Calm - N/A   Clear
4:16 AM 69.8 °F - 69.8 °F 100% 30.07 in - East 3.5 mph - N/A   Unknown
5:17 AM 69.8 °F - 69.8 °F 100% 30.08 in - Calm Calm - N/A   Mostly Cloudy
5:55 AM 69.8 °F - 69.8 °F 100% 30.08 in 2.5 mi Calm Calm - N/A   Scattered Clouds
6:15 AM 69.8 °F - 69.8 °F 100% 30.09 in 3.0 mi Calm Calm - N/A   Mostly Cloudy
6:36 AM 69.8 °F - 69.8 °F 100% 30.10 in - Calm Calm - N/A   Unknown
6:55 AM 69.8 °F - 69.8 °F 100% 30.10 in - Calm Calm - N/A   Unknown
7:15 AM 71.6 °F - 71.6 °F 100% 30.11 in - Calm Calm - N/A   Unknown
8:57 AM 77.0 °F - 73.4 °F 89% 30.14 in - ESE 5.8 mph - N/A   Overcast
9:16 AM 78.8 °F - 73.4 °F 83% 30.14 in - Calm Calm - N/A   Mostly Cloudy
9:36 AM 78.8 °F - 71.6 °F 78% 30.14 in - SSE 6.9 mph - N/A   Mostly Cloudy
10:15 AM 80.6 °F 84.6 °F 71.6 °F 74% 30.15 in - South 4.6 mph - N/A   Scattered Clouds
10:36 AM 80.6 °F 83.9 °F 69.8 °F 70% 30.14 in - ESE 3.5 mph - N/A   Scattered Clouds
11:57 AM 84.2 °F 87.3 °F 68.0 °F 58% 30.15 in - East 6.9 mph - N/A   Scattered Clouds
12:15 PM 84.2 °F 87.3 °F 68.0 °F 58% 30.14 in - SE 4.6 mph - N/A   Scattered Clouds
12:36 PM 84.2 °F 86.6 °F 66.2 °F 55% 30.14 in - ESE 6.9 mph - N/A   Scattered Clouds
2:35 PM 86.0 °F 88.2 °F 66.2 °F 51% 30.11 in - ENE 4.6 mph - N/A   Mostly Cloudy
2:54 PM 86.0 °F 88.2 °F 66.2 °F 51% 30.10 in - East 5.8 mph - N/A   Mostly Cloudy
3:54 PM 87.8 °F 89.4 °F 64.4 °F 46% 30.09 in - ESE 5.8 mph - N/A   Scattered Clouds
4:35 PM 87.8 °F 89.4 °F 64.4 °F 46% 30.07 in - SSE 4.6 mph - N/A   Clear
4:55 PM 87.8 °F 90.4 °F 66.2 °F 49% 30.07 in - SSE 5.8 mph - N/A   Clear
5:14 PM 87.8 °F 89.4 °F 64.4 °F 46% 30.06 in - ESE 8.1 mph - N/A   Clear
7:16 PM 84.2 °F 86.6 °F 66.2 °F 55% 30.04 in - Calm Calm - N/A   Scattered Clouds
7:34 PM 84.2 °F 86.6 °F 66.2 °F 55% 30.04 in - ESE 3.5 mph - N/A   Mostly Cloudy
7:54 PM 84.2 °F 86.6 °F 66.2 °F 55% 30.04 in - East 5.8 mph - N/A   Scattered Clouds
8:15 PM 82.4 °F 86.3 °F 69.8 °F 66% 30.04 in - ESE 5.8 mph - N/A   Scattered Clouds
8:34 PM 82.4 °F 86.3 °F 69.8 °F 66% 30.04 in - ESE 6.9 mph - N/A   Scattered Clouds
9:35 PM 80.6 °F 84.6 °F 71.6 °F 74% 30.05 in - SE 5.8 mph - N/A   Mostly Cloudy
10:14 PM 78.8 °F - 71.6 °F 78% 30.06 in - SSE 4.6 mph - N/A   Scattered Clouds
10:35 PM 172.4 °F - - N/A% 30.07 in - SSE 4.6 mph - N/A   Clear
10:56 PM 78.8 °F - 71.6 °F 78% 30.07 in - South 3.5 mph - N/A   Scattered Clouds
11:16 PM 78.8 °F - 71.6 °F 78% 30.07 in - SSE 4.6 mph - N/A   Mostly Cloudy
11:34 PM 78.8 °F - 71.6 °F 78% 30.07 in - South 5.8 mph - N/A   Mostly Cloudy